﻿"Plot Title: 10397703"
"#","Date Time, GMT-07:00","Temp, °C (LGR S/N: 10397703, SEN S/N: 10397703)"
1,06/12/14 01:56:10 PM,17.570
2,06/12/14 02:11:10 PM,16.141
3,06/12/14 02:26:10 PM,15.855
4,06/12/14 02:41:10 PM,15.951
5,06/12/14 02:56:10 PM,15.855
6,06/12/14 03:11:10 PM,15.760
7,06/12/14 03:26:10 PM,15.855
8,06/12/14 03:41:10 PM,15.951
9,06/12/14 03:56:10 PM,16.046
10,06/12/14 04:11:10 PM,16.141
11,06/12/14 04:26:10 PM,16.046
12,06/12/14 04:41:10 PM,15.951
13,06/12/14 04:56:10 PM,15.951
14,06/12/14 05:11:10 PM,15.951
15,06/12/14 05:26:10 PM,15.951
16,06/12/14 05:41:10 PM,15.951
17,06/12/14 05:56:10 PM,15.951
18,06/12/14 06:11:10 PM,15.760
19,06/12/14 06:26:10 PM,15.569
20,06/12/14 06:41:10 PM,15.569
21,06/12/14 06:56:10 PM,15.569
22,06/12/14 07:11:10 PM,15.569
23,06/12/14 07:26:10 PM,15.473
24,06/12/14 07:41:10 PM,15.473
25,06/12/14 07:56:10 PM,15.378
26,06/12/14 08:11:10 PM,15.378
27,06/12/14 08:26:10 PM,15.473
28,06/12/14 08:41:10 PM,15.378
29,06/12/14 08:56:10 PM,15.378
30,06/12/14 09:11:10 PM,15.282
31,06/12/14 09:26:10 PM,15.378
32,06/12/14 09:41:10 PM,15.378
33,06/12/14 09:56:10 PM,15.378
34,06/12/14 10:11:10 PM,15.473
35,06/12/14 10:26:10 PM,15.473
36,06/12/14 10:41:10 PM,15.473
37,06/12/14 10:56:10 PM,15.473
38,06/12/14 11:11:10 PM,15.473
39,06/12/14 11:26:10 PM,15.473
40,06/12/14 11:41:10 PM,15.473
41,06/12/14 11:56:10 PM,15.473
42,06/13/14 12:11:10 AM,15.473
43,06/13/14 12:26:10 AM,15.378
44,06/13/14 12:41:10 AM,15.282
45,06/13/14 12:56:10 AM,15.282
46,06/13/14 01:11:10 AM,15.282
47,06/13/14 01:26:10 AM,15.282
48,06/13/14 01:41:10 AM,15.282
49,06/13/14 01:56:10 AM,15.282
50,06/13/14 02:11:10 AM,15.282
51,06/13/14 02:26:10 AM,15.378
52,06/13/14 02:41:10 AM,15.473
53,06/13/14 02:56:10 AM,15.378
54,06/13/14 03:11:10 AM,15.091
55,06/13/14 03:26:10 AM,14.900
56,06/13/14 03:41:10 AM,14.900
57,06/13/14 03:56:10 AM,15.091
58,06/13/14 04:11:10 AM,15.187
59,06/13/14 04:26:10 AM,15.091
60,06/13/14 04:41:10 AM,15.091
61,06/13/14 04:56:10 AM,15.091
62,06/13/14 05:11:10 AM,15.187
63,06/13/14 05:26:10 AM,15.282
64,06/13/14 05:41:10 AM,15.282
65,06/13/14 05:56:10 AM,15.282
66,06/13/14 06:11:10 AM,15.187
67,06/13/14 06:26:10 AM,15.187
68,06/13/14 06:41:10 AM,15.187
69,06/13/14 06:56:10 AM,15.091
70,06/13/14 07:11:10 AM,15.091
71,06/13/14 07:26:10 AM,15.091
72,06/13/14 07:41:10 AM,15.091
73,06/13/14 07:56:10 AM,15.091
74,06/13/14 08:11:10 AM,15.091
75,06/13/14 08:26:10 AM,15.091
76,06/13/14 08:41:10 AM,15.187
77,06/13/14 08:56:10 AM,15.187
78,06/13/14 09:11:10 AM,15.187
79,06/13/14 09:26:10 AM,15.187
80,06/13/14 09:41:10 AM,15.187
81,06/13/14 09:56:10 AM,15.187
82,06/13/14 10:11:10 AM,15.187
83,06/13/14 10:26:10 AM,15.187
84,06/13/14 10:41:10 AM,15.187
85,06/13/14 10:56:10 AM,15.187
86,06/13/14 11:11:10 AM,15.187
87,06/13/14 11:26:10 AM,15.282
88,06/13/14 11:41:10 AM,15.378
89,06/13/14 11:56:10 AM,15.569
90,06/13/14 12:11:10 PM,15.569
91,06/13/14 12:26:10 PM,15.569
92,06/13/14 12:41:10 PM,16.046
93,06/13/14 12:56:10 PM,16.046
94,06/13/14 01:11:10 PM,15.951
95,06/13/14 01:26:10 PM,15.951
96,06/13/14 01:41:10 PM,15.951
97,06/13/14 01:56:10 PM,16.046
98,06/13/14 02:11:10 PM,16.141
99,06/13/14 02:26:10 PM,16.046
100,06/13/14 02:41:10 PM,16.046
101,06/13/14 02:56:10 PM,16.046
102,06/13/14 03:11:10 PM,16.237
103,06/13/14 03:26:10 PM,15.951
104,06/13/14 03:41:10 PM,15.951
105,06/13/14 03:56:10 PM,16.046
106,06/13/14 04:11:10 PM,16.046
107,06/13/14 04:26:10 PM,16.046
108,06/13/14 04:41:10 PM,15.951
109,06/13/14 04:56:10 PM,15.951
110,06/13/14 05:11:10 PM,16.046
111,06/13/14 05:26:10 PM,16.046
112,06/13/14 05:41:10 PM,15.951
113,06/13/14 05:56:10 PM,15.951
114,06/13/14 06:11:10 PM,15.855
115,06/13/14 06:26:10 PM,15.855
116,06/13/14 06:41:10 PM,15.760
117,06/13/14 06:56:10 PM,15.569
118,06/13/14 07:11:10 PM,15.473
119,06/13/14 07:26:10 PM,15.378
120,06/13/14 07:41:10 PM,15.282
121,06/13/14 07:56:10 PM,15.473
122,06/13/14 08:11:10 PM,15.473
123,06/13/14 08:26:10 PM,15.378
124,06/13/14 08:41:10 PM,15.282
125,06/13/14 08:56:10 PM,15.187
126,06/13/14 09:11:10 PM,15.091
127,06/13/14 09:26:10 PM,15.091
128,06/13/14 09:41:10 PM,15.091
129,06/13/14 09:56:10 PM,15.091
130,06/13/14 10:11:10 PM,15.091
131,06/13/14 10:26:10 PM,15.091
132,06/13/14 10:41:10 PM,15.091
133,06/13/14 10:56:10 PM,15.091
134,06/13/14 11:11:10 PM,15.091
135,06/13/14 11:26:10 PM,15.091
136,06/13/14 11:41:10 PM,15.091
137,06/13/14 11:56:10 PM,15.091
138,06/14/14 12:11:10 AM,15.282
139,06/14/14 12:26:10 AM,15.282
140,06/14/14 12:41:10 AM,15.282
141,06/14/14 12:56:10 AM,15.187
142,06/14/14 01:11:10 AM,15.282
143,06/14/14 01:26:10 AM,15.282
144,06/14/14 01:41:10 AM,15.282
145,06/14/14 01:56:10 AM,15.282
146,06/14/14 02:11:10 AM,15.187
147,06/14/14 02:26:10 AM,15.187
148,06/14/14 02:41:10 AM,15.187
149,06/14/14 02:56:10 AM,15.187
150,06/14/14 03:11:10 AM,15.091
151,06/14/14 03:26:10 AM,15.187
152,06/14/14 03:41:10 AM,15.187
153,06/14/14 03:56:10 AM,15.187
154,06/14/14 04:11:10 AM,15.187
155,06/14/14 04:26:10 AM,15.187
156,06/14/14 04:41:10 AM,15.187
157,06/14/14 04:56:10 AM,15.187
158,06/14/14 05:11:10 AM,15.282
159,06/14/14 05:26:10 AM,15.187
160,06/14/14 05:41:10 AM,15.187
161,06/14/14 05:56:10 AM,15.187
162,06/14/14 06:11:10 AM,15.187
163,06/14/14 06:26:10 AM,15.187
164,06/14/14 06:41:10 AM,15.187
165,06/14/14 06:56:10 AM,15.091
166,06/14/14 07:11:10 AM,15.091
167,06/14/14 07:26:10 AM,14.996
168,06/14/14 07:41:10 AM,14.996
169,06/14/14 07:56:10 AM,14.996
170,06/14/14 08:11:10 AM,14.996
171,06/14/14 08:26:10 AM,15.091
172,06/14/14 08:41:10 AM,15.091
173,06/14/14 08:56:10 AM,15.091
174,06/14/14 09:11:10 AM,14.996
175,06/14/14 09:26:10 AM,14.996
176,06/14/14 09:41:10 AM,15.091
177,06/14/14 09:56:10 AM,15.091
178,06/14/14 10:11:10 AM,15.091
179,06/14/14 10:26:10 AM,15.091
180,06/14/14 10:41:10 AM,15.091
181,06/14/14 10:56:10 AM,15.187
182,06/14/14 11:11:10 AM,15.187
183,06/14/14 11:26:10 AM,15.187
184,06/14/14 11:41:10 AM,15.187
185,06/14/14 11:56:10 AM,15.187
186,06/14/14 12:11:10 PM,15.282
187,06/14/14 12:26:10 PM,15.282
188,06/14/14 12:41:10 PM,15.378
189,06/14/14 12:56:10 PM,15.378
190,06/14/14 01:11:10 PM,15.569
191,06/14/14 01:26:10 PM,15.664
192,06/14/14 01:41:10 PM,15.760
193,06/14/14 01:56:10 PM,15.855
194,06/14/14 02:11:10 PM,15.855
195,06/14/14 02:26:10 PM,16.046
196,06/14/14 02:41:10 PM,15.951
197,06/14/14 02:56:10 PM,15.855
198,06/14/14 03:11:10 PM,15.855
199,06/14/14 03:26:10 PM,16.046
200,06/14/14 03:41:10 PM,16.141
201,06/14/14 03:56:10 PM,15.951
202,06/14/14 04:11:10 PM,15.855
203,06/14/14 04:26:10 PM,15.664
204,06/14/14 04:41:10 PM,15.760
205,06/14/14 04:56:10 PM,15.855
206,06/14/14 05:11:10 PM,15.855
207,06/14/14 05:26:10 PM,15.760
208,06/14/14 05:41:10 PM,15.760
209,06/14/14 05:56:10 PM,15.760
210,06/14/14 06:11:10 PM,15.760
211,06/14/14 06:26:10 PM,15.760
212,06/14/14 06:41:10 PM,15.664
213,06/14/14 06:56:10 PM,15.760
214,06/14/14 07:11:10 PM,15.664
215,06/14/14 07:26:10 PM,15.569
216,06/14/14 07:41:10 PM,15.473
217,06/14/14 07:56:10 PM,15.378
218,06/14/14 08:11:10 PM,15.282
219,06/14/14 08:26:10 PM,15.187
220,06/14/14 08:41:10 PM,15.187
221,06/14/14 08:56:10 PM,15.282
222,06/14/14 09:11:10 PM,15.282
223,06/14/14 09:26:10 PM,15.091
224,06/14/14 09:41:10 PM,14.996
225,06/14/14 09:56:10 PM,14.804
226,06/14/14 10:11:10 PM,14.996
227,06/14/14 10:26:10 PM,14.804
228,06/14/14 10:41:10 PM,14.900
229,06/14/14 10:56:10 PM,14.900
230,06/14/14 11:11:10 PM,14.900
231,06/14/14 11:26:10 PM,14.804
232,06/14/14 11:41:10 PM,14.804
233,06/14/14 11:56:10 PM,14.804
234,06/15/14 12:11:10 AM,14.804
235,06/15/14 12:26:10 AM,14.804
236,06/15/14 12:41:10 AM,14.996
237,06/15/14 12:56:10 AM,14.996
238,06/15/14 01:11:10 AM,14.996
239,06/15/14 01:26:10 AM,14.996
240,06/15/14 01:41:10 AM,15.091
241,06/15/14 01:56:10 AM,15.091
242,06/15/14 02:11:10 AM,15.091
243,06/15/14 02:26:10 AM,15.091
244,06/15/14 02:41:10 AM,15.091
245,06/15/14 02:56:10 AM,15.091
246,06/15/14 03:11:10 AM,15.187
247,06/15/14 03:26:10 AM,15.187
248,06/15/14 03:41:10 AM,15.187
249,06/15/14 03:56:10 AM,15.091
250,06/15/14 04:11:10 AM,15.091
251,06/15/14 04:26:10 AM,15.187
252,06/15/14 04:41:10 AM,15.091
253,06/15/14 04:56:10 AM,15.091
254,06/15/14 05:11:10 AM,15.187
255,06/15/14 05:26:10 AM,15.187
256,06/15/14 05:41:10 AM,15.091
257,06/15/14 05:56:10 AM,14.996
258,06/15/14 06:11:10 AM,15.091
259,06/15/14 06:26:10 AM,14.996
260,06/15/14 06:41:10 AM,14.996
261,06/15/14 06:56:10 AM,14.996
262,06/15/14 07:11:10 AM,14.996
263,06/15/14 07:26:10 AM,14.996
264,06/15/14 07:41:10 AM,14.996
265,06/15/14 07:56:10 AM,14.996
266,06/15/14 08:11:10 AM,14.996
267,06/15/14 08:26:10 AM,14.996
268,06/15/14 08:41:10 AM,14.996
269,06/15/14 08:56:10 AM,14.996
270,06/15/14 09:11:10 AM,14.996
271,06/15/14 09:26:10 AM,14.996
272,06/15/14 09:41:10 AM,14.996
273,06/15/14 09:56:10 AM,14.996
274,06/15/14 10:11:10 AM,15.091
275,06/15/14 10:26:10 AM,15.091
276,06/15/14 10:41:10 AM,15.187
277,06/15/14 10:56:10 AM,15.091
278,06/15/14 11:11:10 AM,15.187
279,06/15/14 11:26:10 AM,15.187
280,06/15/14 11:41:10 AM,15.187
281,06/15/14 11:56:10 AM,15.282
282,06/15/14 12:11:10 PM,15.187
283,06/15/14 12:26:10 PM,15.187
284,06/15/14 12:41:10 PM,15.282
285,06/15/14 12:56:10 PM,15.282
286,06/15/14 01:11:10 PM,15.473
287,06/15/14 01:26:10 PM,15.569
288,06/15/14 01:41:10 PM,15.569
289,06/15/14 01:56:10 PM,15.664
290,06/15/14 02:11:10 PM,15.760
291,06/15/14 02:26:10 PM,15.855
292,06/15/14 02:41:10 PM,15.951
293,06/15/14 02:56:10 PM,16.046
294,06/15/14 03:11:10 PM,16.141
295,06/15/14 03:26:10 PM,16.046
296,06/15/14 03:41:10 PM,15.951
297,06/15/14 03:56:10 PM,15.760
298,06/15/14 04:11:10 PM,15.855
299,06/15/14 04:26:10 PM,15.855
300,06/15/14 04:41:10 PM,16.141
301,06/15/14 04:56:10 PM,15.569
302,06/15/14 05:11:10 PM,15.664
303,06/15/14 05:26:10 PM,15.664
304,06/15/14 05:41:10 PM,15.664
305,06/15/14 05:56:10 PM,15.664
306,06/15/14 06:11:10 PM,15.664
307,06/15/14 06:26:10 PM,15.664
308,06/15/14 06:41:10 PM,15.664
309,06/15/14 06:56:10 PM,15.664
310,06/15/14 07:11:10 PM,15.664
311,06/15/14 07:26:10 PM,15.569
312,06/15/14 07:41:10 PM,15.569
313,06/15/14 07:56:10 PM,15.569
314,06/15/14 08:11:10 PM,15.473
315,06/15/14 08:26:10 PM,15.282
316,06/15/14 08:41:10 PM,15.091
317,06/15/14 08:56:10 PM,15.091
318,06/15/14 09:11:10 PM,15.091
319,06/15/14 09:26:10 PM,15.091
320,06/15/14 09:41:10 PM,15.091
321,06/15/14 09:56:10 PM,15.091
322,06/15/14 10:11:10 PM,14.996
323,06/15/14 10:26:10 PM,14.804
324,06/15/14 10:41:10 PM,14.900
325,06/15/14 10:56:10 PM,14.804
326,06/15/14 11:11:10 PM,14.804
327,06/15/14 11:26:10 PM,14.804
328,06/15/14 11:41:10 PM,14.804
329,06/15/14 11:56:10 PM,14.709
330,06/16/14 12:11:10 AM,14.709
331,06/16/14 12:26:10 AM,14.804
332,06/16/14 12:41:10 AM,14.804
333,06/16/14 12:56:10 AM,14.804
334,06/16/14 01:11:10 AM,14.804
335,06/16/14 01:26:10 AM,14.804
336,06/16/14 01:41:10 AM,14.804
337,06/16/14 01:56:10 AM,14.804
338,06/16/14 02:11:10 AM,14.804
339,06/16/14 02:26:10 AM,14.804
340,06/16/14 02:41:10 AM,14.804
341,06/16/14 02:56:10 AM,14.804
342,06/16/14 03:11:10 AM,14.900
343,06/16/14 03:26:10 AM,14.900
344,06/16/14 03:41:10 AM,14.996
345,06/16/14 03:56:10 AM,14.996
346,06/16/14 04:11:10 AM,14.996
347,06/16/14 04:26:10 AM,14.996
348,06/16/14 04:41:10 AM,14.996
349,06/16/14 04:56:10 AM,14.996
350,06/16/14 05:11:10 AM,14.996
351,06/16/14 05:26:10 AM,14.996
352,06/16/14 05:41:10 AM,14.900
353,06/16/14 05:56:10 AM,14.900
354,06/16/14 06:11:10 AM,14.996
355,06/16/14 06:26:10 AM,14.996
356,06/16/14 06:41:10 AM,14.996
357,06/16/14 06:56:10 AM,14.804
358,06/16/14 07:11:10 AM,14.804
359,06/16/14 07:26:10 AM,14.804
360,06/16/14 07:41:10 AM,14.804
361,06/16/14 07:56:10 AM,14.804
362,06/16/14 08:11:10 AM,14.804
363,06/16/14 08:26:10 AM,14.804
364,06/16/14 08:41:10 AM,14.804
365,06/16/14 08:56:10 AM,14.804
366,06/16/14 09:11:10 AM,14.804
367,06/16/14 09:26:10 AM,14.804
368,06/16/14 09:41:10 AM,14.804
369,06/16/14 09:56:10 AM,14.804
370,06/16/14 10:11:10 AM,14.804
371,06/16/14 10:26:10 AM,14.804
372,06/16/14 10:41:10 AM,14.804
373,06/16/14 10:56:10 AM,14.900
374,06/16/14 11:11:10 AM,14.900
375,06/16/14 11:26:10 AM,14.900
376,06/16/14 11:41:10 AM,14.900
377,06/16/14 11:56:10 AM,14.900
378,06/16/14 12:11:10 PM,14.900
379,06/16/14 12:26:10 PM,14.996
380,06/16/14 12:41:10 PM,14.996
381,06/16/14 12:56:10 PM,15.091
382,06/16/14 01:11:10 PM,15.091
383,06/16/14 01:26:10 PM,15.091
384,06/16/14 01:41:10 PM,15.091
385,06/16/14 01:56:10 PM,15.091
386,06/16/14 02:11:10 PM,15.091
387,06/16/14 02:26:10 PM,15.187
388,06/16/14 02:41:10 PM,15.187
389,06/16/14 02:56:10 PM,15.282
390,06/16/14 03:11:10 PM,15.282
391,06/16/14 03:26:10 PM,15.378
392,06/16/14 03:41:10 PM,15.378
393,06/16/14 03:56:10 PM,15.473
394,06/16/14 04:11:10 PM,15.569
395,06/16/14 04:26:10 PM,15.569
396,06/16/14 04:41:10 PM,15.664
397,06/16/14 04:56:10 PM,15.569
398,06/16/14 05:11:10 PM,15.664
399,06/16/14 05:26:10 PM,15.664
400,06/16/14 05:41:10 PM,15.664
401,06/16/14 05:56:10 PM,15.378
402,06/16/14 06:11:10 PM,15.378
403,06/16/14 06:26:10 PM,15.282
404,06/16/14 06:41:10 PM,15.378
405,06/16/14 06:56:10 PM,15.282
406,06/16/14 07:11:10 PM,15.187
407,06/16/14 07:26:10 PM,15.282
408,06/16/14 07:41:10 PM,15.282
409,06/16/14 07:56:10 PM,15.187
410,06/16/14 08:11:10 PM,15.187
411,06/16/14 08:26:10 PM,15.282
412,06/16/14 08:41:10 PM,15.187
413,06/16/14 08:56:10 PM,15.187
414,06/16/14 09:11:10 PM,15.187
415,06/16/14 09:26:10 PM,15.091
416,06/16/14 09:41:10 PM,15.091
417,06/16/14 09:56:10 PM,14.996
418,06/16/14 10:11:10 PM,14.900
419,06/16/14 10:26:10 PM,14.804
420,06/16/14 10:41:10 PM,14.709
421,06/16/14 10:56:10 PM,14.517
422,06/16/14 11:11:10 PM,14.517
423,06/16/14 11:26:10 PM,14.517
424,06/16/14 11:41:10 PM,14.517
425,06/16/14 11:56:10 PM,14.517
426,06/17/14 12:11:10 AM,14.421
427,06/17/14 12:26:10 AM,14.517
428,06/17/14 12:41:10 AM,14.421
429,06/17/14 12:56:10 AM,14.421
430,06/17/14 01:11:10 AM,14.421
431,06/17/14 01:26:10 AM,14.517
432,06/17/14 01:41:10 AM,14.517
433,06/17/14 01:56:10 AM,14.517
434,06/17/14 02:11:10 AM,14.613
435,06/17/14 02:26:10 AM,14.613
436,06/17/14 02:41:10 AM,14.613
437,06/17/14 02:56:10 AM,14.613
438,06/17/14 03:11:10 AM,14.613
439,06/17/14 03:26:10 AM,14.709
440,06/17/14 03:41:10 AM,14.709
441,06/17/14 03:56:10 AM,14.709
442,06/17/14 04:11:10 AM,14.709
443,06/17/14 04:26:10 AM,14.804
444,06/17/14 04:41:10 AM,14.804
445,06/17/14 04:56:10 AM,14.804
446,06/17/14 05:11:10 AM,14.900
447,06/17/14 05:26:10 AM,14.996
448,06/17/14 05:41:10 AM,14.996
449,06/17/14 05:56:10 AM,14.900
450,06/17/14 06:11:10 AM,14.900
451,06/17/14 06:26:10 AM,14.900
452,06/17/14 06:41:10 AM,14.804
453,06/17/14 06:56:10 AM,14.804
454,06/17/14 07:11:10 AM,14.900
455,06/17/14 07:26:10 AM,14.900
456,06/17/14 07:41:10 AM,14.804
457,06/17/14 07:56:10 AM,14.613
458,06/17/14 08:11:10 AM,14.709
459,06/17/14 08:26:10 AM,14.613
460,06/17/14 08:41:10 AM,14.613
461,06/17/14 08:56:10 AM,14.709
462,06/17/14 09:11:10 AM,14.709
463,06/17/14 09:26:10 AM,14.709
464,06/17/14 09:41:10 AM,14.804
465,06/17/14 09:56:10 AM,14.709
466,06/17/14 10:11:10 AM,14.709
467,06/17/14 10:26:10 AM,14.709
468,06/17/14 10:41:10 AM,14.709
469,06/17/14 10:56:10 AM,14.709
470,06/17/14 11:11:10 AM,14.804
471,06/17/14 11:26:10 AM,14.804
472,06/17/14 11:41:10 AM,14.900
473,06/17/14 11:56:10 AM,14.996
474,06/17/14 12:11:10 PM,14.996
475,06/17/14 12:26:10 PM,14.996
476,06/17/14 12:41:10 PM,14.996
477,06/17/14 12:56:10 PM,15.187
478,06/17/14 01:11:10 PM,15.091
479,06/17/14 01:26:10 PM,14.996
480,06/17/14 01:41:10 PM,14.996
481,06/17/14 01:56:10 PM,14.996
482,06/17/14 02:11:10 PM,14.996
483,06/17/14 02:26:10 PM,14.996
484,06/17/14 02:41:10 PM,15.091
485,06/17/14 02:56:10 PM,15.282
486,06/17/14 03:11:10 PM,15.378
487,06/17/14 03:26:10 PM,15.473
488,06/17/14 03:41:10 PM,15.473
489,06/17/14 03:56:10 PM,15.664
490,06/17/14 04:11:10 PM,15.664
491,06/17/14 04:26:10 PM,15.855
492,06/17/14 04:41:10 PM,16.046
493,06/17/14 04:56:10 PM,15.855
494,06/17/14 05:11:10 PM,15.760
495,06/17/14 05:26:10 PM,15.760
496,06/17/14 05:41:10 PM,15.951
497,06/17/14 05:56:10 PM,16.141
498,06/17/14 06:11:10 PM,15.473
499,06/17/14 06:26:10 PM,15.473
500,06/17/14 06:41:10 PM,15.091
501,06/17/14 06:56:10 PM,15.091
502,06/17/14 07:11:10 PM,15.378
503,06/17/14 07:26:10 PM,15.282
504,06/17/14 07:41:10 PM,15.282
505,06/17/14 07:56:10 PM,15.282
506,06/17/14 08:11:10 PM,15.282
507,06/17/14 08:26:10 PM,15.378
508,06/17/14 08:41:10 PM,15.282
509,06/17/14 08:56:10 PM,15.187
510,06/17/14 09:11:10 PM,15.187
511,06/17/14 09:26:10 PM,15.091
512,06/17/14 09:41:10 PM,15.091
513,06/17/14 09:56:10 PM,15.091
514,06/17/14 10:11:10 PM,14.996
515,06/17/14 10:26:10 PM,14.996
516,06/17/14 10:41:10 PM,14.804
517,06/17/14 10:56:10 PM,14.996
518,06/17/14 11:11:10 PM,14.996
519,06/17/14 11:26:10 PM,14.804
520,06/17/14 11:41:10 PM,14.613
521,06/17/14 11:56:10 PM,14.613
522,06/18/14 12:11:10 AM,14.517
523,06/18/14 12:26:10 AM,14.421
524,06/18/14 12:41:10 AM,14.517
525,06/18/14 12:56:10 AM,14.517
526,06/18/14 01:11:10 AM,14.517
527,06/18/14 01:26:10 AM,14.517
528,06/18/14 01:41:10 AM,14.517
529,06/18/14 01:56:10 AM,14.517
530,06/18/14 02:11:10 AM,14.517
531,06/18/14 02:26:10 AM,14.517
532,06/18/14 02:41:10 AM,14.709
533,06/18/14 02:56:10 AM,14.804
534,06/18/14 03:11:10 AM,14.709
535,06/18/14 03:26:10 AM,14.709
536,06/18/14 03:41:10 AM,14.709
537,06/18/14 03:56:10 AM,14.709
538,06/18/14 04:11:10 AM,14.709
539,06/18/14 04:26:10 AM,14.804
540,06/18/14 04:41:10 AM,14.804
541,06/18/14 04:56:10 AM,14.804
542,06/18/14 05:11:10 AM,14.709
543,06/18/14 05:26:10 AM,14.613
544,06/18/14 05:41:10 AM,14.709
545,06/18/14 05:56:10 AM,14.709
546,06/18/14 06:11:10 AM,14.709
547,06/18/14 06:26:10 AM,14.709
548,06/18/14 06:41:10 AM,14.804
549,06/18/14 06:56:10 AM,14.804
550,06/18/14 07:11:10 AM,14.804
551,06/18/14 07:26:10 AM,14.804
552,06/18/14 07:41:10 AM,14.900
553,06/18/14 07:56:10 AM,14.996
554,06/18/14 08:11:10 AM,14.900
555,06/18/14 08:26:10 AM,14.900
556,06/18/14 08:41:10 AM,14.804
557,06/18/14 08:56:10 AM,14.804
558,06/18/14 09:11:10 AM,14.709
559,06/18/14 09:26:10 AM,14.613
560,06/18/14 09:41:10 AM,14.613
561,06/18/14 09:56:10 AM,14.613
562,06/18/14 10:11:10 AM,14.709
563,06/18/14 10:26:10 AM,14.709
564,06/18/14 10:41:10 AM,14.804
565,06/18/14 10:56:10 AM,14.804
566,06/18/14 11:11:10 AM,14.709
567,06/18/14 11:26:10 AM,14.709
568,06/18/14 11:41:10 AM,14.709
569,06/18/14 11:56:10 AM,14.709
570,06/18/14 12:11:10 PM,14.709
571,06/18/14 12:26:10 PM,14.709
572,06/18/14 12:41:10 PM,14.804
573,06/18/14 12:56:10 PM,14.804
574,06/18/14 01:11:10 PM,14.900
575,06/18/14 01:26:10 PM,14.996
576,06/18/14 01:41:10 PM,14.996
577,06/18/14 01:56:10 PM,14.996
578,06/18/14 02:11:10 PM,15.091
579,06/18/14 02:26:10 PM,15.091
580,06/18/14 02:41:10 PM,15.091
581,06/18/14 02:56:10 PM,14.996
582,06/18/14 03:11:10 PM,15.091
583,06/18/14 03:26:10 PM,15.091
584,06/18/14 03:41:10 PM,15.378
585,06/18/14 03:56:10 PM,15.664
586,06/18/14 04:11:10 PM,15.760
587,06/18/14 04:26:10 PM,15.760
588,06/18/14 04:41:10 PM,15.664
589,06/18/14 04:56:10 PM,15.855
590,06/18/14 05:11:10 PM,15.855
591,06/18/14 05:26:10 PM,15.664
592,06/18/14 05:41:10 PM,15.569
593,06/18/14 05:56:10 PM,16.523
594,06/18/14 06:11:10 PM,16.618
595,06/18/14 06:26:10 PM,15.951
596,06/18/14 06:41:10 PM,15.473
597,06/18/14 06:56:10 PM,15.378
598,06/18/14 07:11:10 PM,15.282
599,06/18/14 07:26:10 PM,15.473
600,06/18/14 07:41:10 PM,15.187
601,06/18/14 07:56:10 PM,14.996
602,06/18/14 08:11:10 PM,15.091
603,06/18/14 08:26:10 PM,15.473
604,06/18/14 08:41:10 PM,15.569
605,06/18/14 08:56:10 PM,15.569
606,06/18/14 09:11:10 PM,15.473
607,06/18/14 09:26:10 PM,15.569
608,06/18/14 09:41:10 PM,15.473
609,06/18/14 09:56:10 PM,15.473
610,06/18/14 10:11:10 PM,15.473
611,06/18/14 10:26:10 PM,15.473
612,06/18/14 10:41:10 PM,15.473
613,06/18/14 10:56:10 PM,15.473
614,06/18/14 11:11:10 PM,15.378
615,06/18/14 11:26:10 PM,15.282
616,06/18/14 11:41:10 PM,15.282
617,06/18/14 11:56:10 PM,15.282
618,06/19/14 12:11:10 AM,14.996
619,06/19/14 12:26:10 AM,14.709
620,06/19/14 12:41:10 AM,14.709
621,06/19/14 12:56:10 AM,14.613
622,06/19/14 01:11:10 AM,14.709
623,06/19/14 01:26:10 AM,14.804
624,06/19/14 01:41:10 AM,14.709
625,06/19/14 01:56:10 AM,14.613
626,06/19/14 02:11:10 AM,14.804
627,06/19/14 02:26:10 AM,14.996
628,06/19/14 02:41:10 AM,14.996
629,06/19/14 02:56:10 AM,14.996
630,06/19/14 03:11:10 AM,14.900
631,06/19/14 03:26:10 AM,14.900
632,06/19/14 03:41:10 AM,14.900
633,06/19/14 03:56:10 AM,14.900
634,06/19/14 04:11:10 AM,14.900
635,06/19/14 04:26:10 AM,14.900
636,06/19/14 04:41:10 AM,14.900
637,06/19/14 04:56:10 AM,14.900
638,06/19/14 05:11:10 AM,14.804
639,06/19/14 05:26:10 AM,14.804
640,06/19/14 05:41:10 AM,14.804
641,06/19/14 05:56:10 AM,14.900
642,06/19/14 06:11:10 AM,14.900
643,06/19/14 06:26:10 AM,14.900
644,06/19/14 06:41:10 AM,14.996
645,06/19/14 06:56:10 AM,14.900
646,06/19/14 07:11:10 AM,14.996
647,06/19/14 07:26:10 AM,15.091
648,06/19/14 07:41:10 AM,15.282
649,06/19/14 07:56:10 AM,15.282
650,06/19/14 08:11:10 AM,15.187
651,06/19/14 08:26:10 AM,15.091
652,06/19/14 08:41:10 AM,15.091
653,06/19/14 08:56:10 AM,15.091
654,06/19/14 09:11:10 AM,14.996
655,06/19/14 09:26:10 AM,15.091
656,06/19/14 09:41:10 AM,14.804
657,06/19/14 09:56:10 AM,14.804
658,06/19/14 10:11:10 AM,14.996
659,06/19/14 10:26:10 AM,15.091
660,06/19/14 10:41:10 AM,15.091
661,06/19/14 10:56:10 AM,15.091
662,06/19/14 11:11:10 AM,15.187
663,06/19/14 11:26:10 AM,15.187
664,06/19/14 11:41:10 AM,15.091
665,06/19/14 11:56:10 AM,15.187
666,06/19/14 12:11:10 PM,15.569
667,06/19/14 12:26:10 PM,16.332
668,06/19/14 12:41:10 PM,16.237
669,06/19/14 12:56:10 PM,16.427
670,06/19/14 01:11:10 PM,16.141
671,06/19/14 01:26:10 PM,15.855
672,06/19/14 01:41:10 PM,16.332
673,06/19/14 01:56:10 PM,16.713
674,06/19/14 02:11:10 PM,15.664
675,06/19/14 02:26:10 PM,15.664
676,06/19/14 02:41:10 PM,15.855
677,06/19/14 02:56:10 PM,15.760
678,06/19/14 03:11:10 PM,15.760
679,06/19/14 03:26:10 PM,15.664
680,06/19/14 03:41:10 PM,15.569
681,06/19/14 03:56:10 PM,15.569
682,06/19/14 04:11:10 PM,15.569
683,06/19/14 04:26:10 PM,15.378
684,06/19/14 04:41:10 PM,15.473
685,06/19/14 04:56:10 PM,15.378
686,06/19/14 05:11:10 PM,15.378
687,06/19/14 05:26:10 PM,15.473
688,06/19/14 05:41:10 PM,15.569
689,06/19/14 05:56:10 PM,15.664
690,06/19/14 06:11:10 PM,15.569
691,06/19/14 06:26:10 PM,15.855
692,06/19/14 06:41:10 PM,15.951
693,06/19/14 06:56:10 PM,15.951
694,06/19/14 07:11:10 PM,16.523
695,06/19/14 07:26:10 PM,16.713
696,06/19/14 07:41:10 PM,15.282
697,06/19/14 07:56:10 PM,14.900
698,06/19/14 08:11:10 PM,14.804
699,06/19/14 08:26:10 PM,14.613
700,06/19/14 08:41:10 PM,14.613
701,06/19/14 08:56:10 PM,14.900
702,06/19/14 09:11:10 PM,15.091
703,06/19/14 09:26:10 PM,15.378
704,06/19/14 09:41:10 PM,15.760
705,06/19/14 09:56:10 PM,15.951
706,06/19/14 10:11:10 PM,15.760
707,06/19/14 10:26:10 PM,16.046
708,06/19/14 10:41:10 PM,15.951
709,06/19/14 10:56:10 PM,15.951
710,06/19/14 11:11:10 PM,15.855
711,06/19/14 11:26:10 PM,15.760
712,06/19/14 11:41:10 PM,15.664
713,06/19/14 11:56:10 PM,15.378
714,06/20/14 12:11:10 AM,15.187
715,06/20/14 12:26:10 AM,14.804
716,06/20/14 12:41:10 AM,14.900
717,06/20/14 12:56:10 AM,14.804
718,06/20/14 01:11:10 AM,14.517
719,06/20/14 01:26:10 AM,14.613
720,06/20/14 01:41:10 AM,14.517
721,06/20/14 01:56:10 AM,14.517
722,06/20/14 02:11:10 AM,14.517
723,06/20/14 02:26:10 AM,14.517
724,06/20/14 02:41:10 AM,14.517
725,06/20/14 02:56:10 AM,14.517
726,06/20/14 03:11:10 AM,14.517
727,06/20/14 03:26:10 AM,14.517